Location: Unspecified
(43.4680°N, 87.1740°E)
Time: 04:40:03
(UTC+00:00)

Cosmos 1408 - Pass Details

Date: 17 April 2021
Orbit: 467 x 492 km, 82.6° (Epoch: 16 May)

Event Time Altitude Azimuth Distance (km) Brightness Sun altitude
Rises 14:20:45 0° 349° (N) 2,519 6.8 -14.8°
Reaches altitude 10° 14:22:51 10° 347° (NNW) 1,635 5.9 -15.1°
Maximum altitude 14:26:24 71° 264° (W) 500 2.7 -15.7°
Enters shadow 14:29:05 16° 182° (S) 1,281 4.4 -16.1°
